Regional Weather Roundup
Issued by NWS

Home | Current Version | Previous Version | Graphics & Text | Print | Product List | Glossary On
Versions: 1 2 3 4 5 6 7 8 9 10 11 12 13 14 15 16 17 18 19 20 21 22 23 24 25 26 27 28 29 30 31 32 33 34 35 36 37 38 39 40 41 42 43 44 45 46 47 48 49 50
000
ASUS43 KMKX 200411
RWRWI

WISCONSIN REGIONAL WEATHER ROUNDUP
NATIONAL WEATHER SERVICE MILWAUKEE/SULLIVAN WI
1100 PM CDT THU OCT 19 2017

NOTE: "FAIR" INDICATES FEW OR NO CLOUDS BELOW 12,000 FEET WITH NO
SIGNIFICANT WEATHER AND/OR OBSTRUCTIONS TO VISIBILITY.

WIZ001-002-006>008-014>016-023>028-200500-
NORTHWEST WISCONSIN

CITY           SKY/WX    TMP DP  RH WIND       PRES   REMARKS
SUPERIOR ARPT  FAIR      45  38  77 CALM      29.91S
ASHLAND        FAIR      44  36  73 S6        29.95R
HAYWARD        FAIR      57  36  45 S10       29.96S
SIREN          FAIR      60  34  38 S9        29.93F
CUMBERLAND     FAIR      50  34  53 S6        29.97F
RICE LAKE      FAIR      51  38  61 SE5       30.00S
CHETEK         FAIR      51  39  65 E3        29.99S
LADYSMITH      FAIR      55  36  48 SE3       30.02S
EAU CLAIRE     FAIR      56  36  47 S8        29.99S
MENOMONIE      FAIR      49  38  65 E3        29.99S
NEW RICHMOND   FAIR      55  35  47 S7        29.96F
OSCEOLA        FAIR      57  37  48 S7        29.97F
$$

WIZ003>005-009-010-017-018-200500-
NORTH CENTRAL WISCONSIN

CITY           SKY/WX    TMP DP  RH WIND       PRES   REMARKS
MANITOWISH WTR FAIR      50  34  54 S3        30.00S
ARBOR VITAE    FAIR      55  35  48 S7        30.01S
WOODRUFF       FAIR      55  35  48 S7        30.01S
RHINELANDER    FAIR      56  34  43 SW13      30.03S
EAGLE RIVER    FAIR      44  32  62 CALM      30.02S
LAND O LAKES   FAIR      50  32  49 S3        30.03S
PHILLIPS       FAIR      54  35  49 SW6       30.00S
TOMAHAWK       FAIR      47  34  60 CALM      30.03S
MEDFORD        FAIR      47  36  65 S8        30.03S
MERRILL        FAIR      54  35  49 S3        30.05S
$$

WIZ029-030-035-036-043>047-200500-
CENTRAL WISCONSIN

CITY           SKY/WX    TMP DP  RH WIND       PRES   REMARKS
WAUSAU         FAIR      52  35  52 SE6       30.04S
MOSINEE        FAIR      50  36  57 S9        30.06S
MARSHFIELD     FAIR      51  33  50 S7        30.04S
STEVENS POINT  FAIR      50  34  55 S3        30.07R
WAUPACA        FAIR      48  37  65 CALM      30.08S
WAUTOMA        FAIR      43  38  82 CALM      30.09R
WISC RAPIDS    FAIR      52  36  54 S5        30.07S
CAMP DOUGLAS   FAIR      51  35  55 CALM      30.05F
$$

WIZ011>013-019>022-031-037>040-048>050-200500-
NORTHEAST WISCONSIN

CITY           SKY/WX    TMP DP  RH WIND       PRES   REMARKS
ANTIGO         FAIR      45  35  68 S6        30.06S
SHAWANO        FAIR      54  35  48 CALM      30.07R
OCONTO         FAIR      49  37  65 CALM      30.07R
STURGEON BAY   FAIR      54  37  52 S7        30.09S
GREEN BAY      FAIR      51  39  63 S7        30.08S
MANITOWOC      FAIR      50  36  58 S6        30.11S
APPLETON       PTCLDY    54  32  43 S8        30.07S
CLINTONVILLE   FAIR      52  36  54 SW7       30.07R
OSHKOSH        FAIR      53  37  54 S9        30.08S
$$

WIZ032>034-041-042-053>061-200500-
SOUTHWEST WISCONSIN

CITY           SKY/WX    TMP DP  RH WIND       PRES   REMARKS
LA CROSSE      FAIR      59  41  51 S8        30.03S
SPARTA         FAIR      61  35  38 S10       30.05S
VIROQUA        FAIR      56  37  47 S7        30.07S
BOSCOBEL       FAIR      50  41  71 CALM      30.07S
PRAIRIE DU CHI FAIR      56  37  49 E5        30.06S
PLATTEVILLE    FAIR      55  40  58 SE6       30.09S
$$

WIZ056-057-062-063-064-067-068-200500-
SOUTH CENTRAL WISCONSIN

CITY           SKY/WX    TMP DP  RH WIND       PRES   REMARKS
REEDSBURG      FAIR      52  37  54 S3        30.08S
BARABOO/DELLS  FAIR      55  32  41 S6        30.08F
LONE ROCK      FAIR      49  40  71 E6        30.09R
MINERAL POINT  FAIR      55  36  47 SE8       30.09S
MADISON        FAIR      55  36  48 S6        30.11R
MIDDLETON      FAIR      56  34  42 CALM      30.11S
WATERTOWN      FAIR      49  37  61 SE3       30.11F
MONROE         FAIR      59  32  36 S14       30.11S
JANESVILLE     FAIR      54  36  50 SE6       30.12S
$$

WIZ051-052-058>065-066-070>072-200500-
SOUTHEAST WISCONSIN

CITY           SKY/WX    TMP DP  RH WIND       PRES   REMARKS
MILWAUKEE      FAIR      54  24  31 S8        30.14F
WAUKESHA       FAIR      50  28  43 S5        30.14F
MILWAUKEE/TIMM FAIR      50  23  34 S7        30.14S
RACINE         FAIR      55  26  32 S6        30.16S
BURLINGTON     FAIR      45  37  72 CALM      30.14S
KENOSHA        FAIR      51  29  42 S5        30.15S
FOND DU LAC    FAIR      55  33  43 S9        30.09S
SHEBOYGAN      FAIR      46  38  73 S5        30.11F
WEST BEND      FAIR      48  32  53 SW6       30.12S
JUNEAU         FAIR      51  36  55 S6        30.12S
$$

LSZ147-162-200500-
LAKE SUPERIOR

STATION/POSITION TIME  TEMP    WIND        PRES    WAVE
                       AIR SEA DIR/SP/G            HT/PER
                 (UTC) (F)     (DEG/KT/KT) (MB)    (FT/S)
W MID LAKE BUOY  0350   57 52              1013.0S   1/ 2
DEVILS ISLAND    0400   62     190/  9/ 11 1013.1R
SAXON HARBOR     0340   60     200/  4/  8 1013.2S
$$

LMZ867-665-643>646-200500-
LAKE MICHIGAN

STATION/POSITION TIME  TEMP    WIND        PRES    WAVE
                       AIR SEA DIR/SP/G            HT/PER
                 (UTC) (F)     (DEG/KT/KT) (MB)    (FT/S)
S GREEN BAY BUOY 0400   58 58  190/ 10/ 12 1018.0
N MID LAKE BUOY  0350   59 58  200/ 16/ 19 1018.7R   4/ 6
NORTHPORT PIER   0340   56     170/  2/  9 1017.9S
KEWAUNEE LAKESHO 0342   58     210/ 10/ 14 1018.1F
SHEBOYGAN LAKESH 0400   57     200/ 12/ 13 1019.5F
PORT WASHINGTON  0330   54     250/  4/  9 1021.0S
ATWATER BUOY     0209   56 53  170/  8/  8 1020.5R
MILWAUKEE LAKESH 0350   57     190/  7/  8   N/A
S MID LAKE BUOY  0350   61 61  150/ 10/ 14 1021.2F   1/ 3
KENOSHA   LAKESH 0400   59     180/  8/ 12 1020.3
$$

TC  - TEMPERATURE IN CELSIUS
VSB - VISIBILITY IN STATUTE MILES
WCI - WIND CHILL INDEX
HX  - HEAT INDEX





USA.gov is the U.S. government's official web portal to all federal, state and local government web resources and services.